Погода в Мошонмадьяроваре

Венгрия     47°52′25″N   17°16′05″E
темп.,
°C
ветер,
м/с
пор.,
м/с
влажн.,
%
обл.,
%
осадки,
мм/ч
давл.,
гПа
погр.,
м
17 апреля, сб
сб1723:00+3ссз36839 0.0 1021144
02:00+1сз39955 0.0 1021232
05:00+1сз389563 0.0 1021175
08:00+5ссз5882100 0.0 1020438
11:00+5ссз5685100 0.0 1020675
14:00+9с456699 0.1 10191169
17:00+9ссв3565100 0.0 1018584
20:00+7с3673100 0.0 1018158
18 апреля, вс
вс1823:00+6ссз3572100 0.0 1018141
02:00+6ссз3576100 0.0 1018151
05:00+5ссз3681100 0.0 1017188
08:00+6сз4682100 0.0 1017248
11:00+10ссз4464100 0.0 1017819
14:00+11сз5461100 0.2 10171158
17:00+10сз5672100 0.8 1016528
20:00+8сз51083100 1.2 1017368
19 апреля, пн
пн1923:00+7сз5885100 0.1 1017247
02:00+6ссз4891100 1.1 1017369
05:00+6ссз5894100 1.4 1016330
08:00+6ссз5795100 2.9 1016269
11:00+7ссз4792100 0.9 1015406
14:00+7ссз4691100 1.3 1015444
17:00+7сз5893100 0.1 1015368
20:00+6сз5894100 0.1 1014294
20 апреля, вт
вт2023:00+6сз489397 0.0 1014305
02:00+6сз4994100 0.2 1013359
05:00+6сз4992100 0.1 1013384
08:00+7сз61090100 0.1 1013491
11:00+7сз6989100 0.1 1014493
14:00+10сз4680100 0.2 1014792
17:00+12сз5669100 0.3 1013986
20:00+8сз4884100 0.4 1014175
21 апреля, ср
ср2123:00+6сз489190 0.1 1015162
02:00+5з229099 0.2 101627
05:00+4зсз22895 0.0 101619
08:00+8зсз368070 0.1 1017267
11:00+13зсз566330 0.3 10181114
14:00+15зсз68575 0.9 10171277
17:00+15з355017 0.0 10171360
20:00+10з22695 0.0 101813